CAPE
0 0 nan nan nan nan nan nan nan nan nan nan nan nan nan nan nan nan nan nan nan nan nan nan nan nan nan 30 38 38 45 51 59 59 64 70 75 75 81 83 83 84 90 87 87 88 88 95 95 99 105 105 94 94 79 68 68 48 44 40 40 38 35 33 33 28 28 34 35 35 27 20 10 10 7 5 3 3 28 246 246 309 181 60 60 nan
nan nan nan nan nan nan nan nan nan nan nan nan nan nan nan nan nan nan nan nan nan nan nan nan nan nan nan 10 40 40 41 47 54 54 62 71 77 77 86 91 91 93 88 90 90 86 86 93 93 92 92 93 83 83 70 57 57 42 35 32 32 33 33 32 32 26 23 33 32 32 27 17 8 8 4 4 10 10 15 207 207 265 160 66 66 1
0 0 0 nan nan nan nan nan nan nan nan nan nan nan nan nan nan nan nan nan nan nan nan nan nan nan nan 2 39 39 36 39 49 49 60 71 77 77 83 89 89 85 83 81 81 81 81 81 81 80 77 74 67 67 58 42 42 31 28 24 24 23 27 27 27 25 25 30 35 35 24 16 8 8 2 1 6 6 12 61 61 129 108 68 68 22
nan 0 nan nan nan nan nan nan nan nan nan nan nan nan nan nan nan nan nan nan nan nan nan nan nan nan nan nan 22 22 32 38 50 50 61 68 75 75 78 78 78 79 79 76 76 72 71 70 70 68 64 62 54 54 46 38 38 28 23 17 17 17 21 22 22 22 22 28 33 33 27 13 7 7 1 nan 3 3 10 8 8 77 92 77 77 55
nan nan nan 0 0 nan nan nan nan nan nan nan nan nan nan nan nan nan nan nan nan nan nan nan nan nan nan nan 6 6 29 39 51 51 59 61 65 65 67 72 72 72 71 68 68 67 64 66 66 64 57 53 49 49 47 36 36 24 21 15 15 14 15 19 19 21 20 23 28 28 20 10 6 6 1 nan 1 1 7 11 11 28 121 106 106 68
nan 0 0 2 2 4 nan nan nan nan nan nan nan nan nan nan nan nan nan nan nan nan nan 0 0 nan nan nan 7 7 28 39 46 46 48 49 52 52 56 61 61 66 72 73 73 70 69 72 72 74 72 66 58 58 50 39 39 26 18 13 13 11 11 15 15 20 22 22 25 25 17 10 6 6 1 nan 0 0 6 14 14 15 61 99 99 64
nan 0 3 3 3 5 0 nan nan nan nan nan nan nan nan nan nan nan nan nan nan nan nan nan nan nan nan nan 13 13 26 30 32 32 34 38 43 43 49 57 57 68 78 82 82 87 85 92 92 87 79 76 62 62 51 40 40 24 15 12 12 8 7 14 14 20 20 24 23 23 14 9 6 6 1 nan 0 0 4 13 13 11 34 83 83 36
0 nan nan 2 2 nan nan nan nan nan nan nan nan nan nan nan nan nan nan nan nan nan nan nan nan nan nan nan nan nan nan nan nan nan 0 4 21 21 42 62 62 74 70 67 67 60 52 46 46 45 42 40 38 38 36 31 31 23 14 11 11 8 8 14 14 21 22 25 21 21 11 5 2 2 0 nan nan nan 0 4 4 11 7 1 1 25
nan nan 2 nan nan nan nan nan nan nan nan nan nan nan nan nan nan nan nan nan nan nan nan nan nan nan nan nan nan nan nan 1 nan nan nan nan 3 3 37 70 70 66 49 39 39 37 33 35 35 34 32 32 30 30 30 26 26 20 13 10 10 8 7 16 16 23 23 24 23 23 11 5 1 1 nan nan nan nan nan 2 2 7 7 nan nan 3
nan nan nan nan nan nan nan nan nan nan nan nan nan nan nan nan 0 0 nan nan nan nan nan 0 0 nan nan nan nan nan nan 0 17 17 30 29 51 51 51 32 32 18 20 19 19 20 22 23 23 27 26 26 26 26 26 23 23 17 12 9 9 8 8 16 16 26 24 23 21 21 16 7 2 2 nan nan nan nan nan 0 0 3 7 nan nan nan
3 nan nan nan nan nan nan nan nan nan nan nan nan nan nan 0 0 0 0 nan nan nan nan 0 0 1 nan nan nan nan nan nan nan nan 16 34 37 37 32 16 16 8 7 8 8 9 9 9 9 12 15 18 21 21 21 18 18 15 10 7 7 5 5 11 11 24 20 18 19 19 14 8 2 2 nan nan nan nan nan nan nan 1 5 nan nan nan
nan nan nan nan nan nan nan nan nan nan nan nan nan nan 0 nan 2 2 1 0 0 nan nan nan nan 0 nan nan nan nan nan nan 2 2 9 8 2 2 nan nan nan 1 3 6 6 6 6 7 7 7 7 8 12 12 15 14 14 12 9 4 4 3 3 6 6 18 18 14 14 14 13 7 3 3 nan nan nan nan nan nan nan 0 4 0 0 nan
nan nan nan nan nan nan nan nan nan nan nan nan 0 0 1 1 3 3 2 0 0 0 nan nan nan nan nan nan nan nan nan 0 5 5 4 nan nan nan nan nan nan nan nan nan nan nan 3 7 7 7 6 6 8 8 11 12 12 10 7 4 4 2 2 4 4 12 15 13 13 13 11 8 3 3 nan nan nan nan nan nan nan nan 4 2 2 nan
nan nan nan nan nan nan nan nan nan nan 0 nan 1 1 3 3 1 1 nan nan nan nan 1 0 0 nan nan nan nan nan 0 4 2 2 nan nan nan nan nan nan nan nan nan nan nan nan 0 2 2 1 5 4 6 6 6 9 9 10 6 4 4 3 2 4 4 8 12 12 10 10 10 6 2 2 nan nan nan nan nan nan nan nan 4 4 4 nan
nan 0 nan 0 0 0 nan nan nan nan 1 1 5 5 8 2 0 0 nan nan nan 0 1 1 1 0 nan nan nan nan 1 4 nan nan nan nan nan nan nan nan nan nan nan nan nan nan nan 0 0 nan nan 1 2 2 4 8 8 12 7 5 5 3 3 5 5 8 10 10 9 9 8 5 1 1 nan nan nan nan nan nan nan nan 3 8 8 nan
0 2 1 2 2 1 0 0 1 1 2 7 10 10 3 0 nan nan 0 0 0 1 1 1 1 nan nan nan nan nan nan nan nan nan nan nan nan nan nan nan nan nan nan nan nan nan nan nan nan nan nan 5 8 8 6 7 7 10 8 6 6 4 4 6 6 8 10 9 8 8 7 3 0 0 nan nan nan nan nan nan nan nan 2 8 8 nan
4 3 2 2 2 2 1 0 1 1 4 7 3 3 1 nan nan nan 0 0 0 1 1 1 1 1 nan nan nan nan nan nan nan nan nan nan nan nan nan nan nan nan nan nan nan nan nan nan nan nan 0 8 10 10 9 9 9 9 9 7 7 5 4 5 5 8 11 9 7 7 6 2 nan nan nan nan nan nan nan nan nan nan nan 6 6 0
4 5 4 3 3 2 0 nan 0 0 1 1 nan nan nan nan 0 0 0 0 0 0 0 2 2 1 0 0 nan nan nan 1 1 1 nan nan nan nan nan nan nan nan nan nan nan nan nan nan nan 1 4 14 12 12 11 12 12 11 10 8 8 5 3 4 4 8 11 11 7 7 4 2 nan nan nan nan nan nan nan nan nan nan nan 3 3 1
3 4 2 2 2 0 nan nan nan nan nan nan nan nan 0 nan 0 0 nan nan nan nan nan 1 1 2 1 0 nan nan nan 3 3 3 1 nan nan nan nan 0 0 1 nan nan nan nan nan 3 3 12 15 13 11 11 11 12 12 11 9 8 8 4 3 2 2 5 8 11 8 8 4 0 nan nan nan nan nan nan nan nan nan nan nan 3 3 4
5 5 3 nan nan nan nan nan nan nan nan nan 0 0 0 0 nan nan nan nan nan nan nan nan nan 1 1 0 nan nan 1 4 3 3 1 nan nan nan nan 1 1 1 0 0 0 0 2 7 7 11 10 8 8 8 7 9 9 9 9 8 8 3 2 1 1 3 6 9 7 7 3 0 nan nan nan nan nan nan nan nan nan nan nan 1 1 6
1 nan nan nan nan nan nan nan nan nan 4 14 2 2 nan nan nan nan nan nan nan nan nan nan nan 0 1 1 0 0 2 6 2 2 1 nan nan nan nan 0 0 2 1 0 0 1 1 nan nan nan 2 6 5 5 6 7 7 8 8 6 6 3 1 0 0 1 4 7 7 7 4 0 nan nan nan nan nan nan nan nan nan nan nan 2 2 5
nan nan nan nan nan nan nan nan 2 2 9 nan nan nan nan nan nan nan nan nan nan nan nan nan nan 0 0 1 1 1 3 6 2 2 2 0 nan nan nan 0 0 2 2 nan nan nan nan nan nan nan 2 7 7 7 7 7 7 8 8 5 5 2 0 0 0 0 2 5 7 7 4 0 nan nan nan nan nan nan nan nan nan nan nan 1 1 6
nan nan nan nan nan nan nan nan nan nan nan nan nan nan nan nan nan nan nan nan nan nan nan nan nan nan 0 4 4 4 0 0 4 4 4 2 nan nan nan 1 1 2 1 nan nan nan nan nan nan nan 3 8 5 5 5 6 6 7 6 3 3 1 0 nan nan 0 0 3 5 5 3 0 nan nan nan nan nan nan nan nan nan nan nan 2 2 5
1 10 11 0 0 nan nan nan nan nan nan nan nan nan nan nan nan nan nan nan nan nan nan nan nan nan 2 6 1 1 nan 6 14 14 9 3 nan nan nan 1 1 3 0 nan nan nan 0 0 0 nan nan 5 3 3 3 3 3 4 3 2 2 0 nan nan nan nan 0 1 3 3 3 0 nan nan nan nan nan nan nan nan nan nan nan 2 2 6
2 nan nan nan nan nan nan nan nan nan nan nan nan nan nan nan 0 0 nan nan nan nan nan 2 2 3 2 8 1 1 0 0 4 4 3 2 nan nan 0 2 2 1 0 nan nan 1 1 nan nan nan nan 0 1 1 2 2 2 3 2 1 1 nan nan nan nan nan nan 0 1 1 2 0 nan nan nan nan nan nan nan nan nan nan nan 2 2 7
15 23 34 55 55 117 139 151 147 147 85 9 7 7 16 19 19 19 11 5 5 5 8 6 6 3 0 1 1 1 nan nan nan nan 3 1 1 1 0 nan nan 1 1 0 0 3 0 nan nan nan nan nan 1 1 1 1 1 1 1 0 0 nan nan nan nan nan nan nan 0 0 1 0 nan nan nan nan nan nan nan nan nan nan nan 0 0 3
110 121 147 155 155 147 131 114 111 111 123 98 39 39 26 26 19 19 12 9 9 8 6 4 4 3 1 1 0 0 nan nan 0 0 0 3 1 1 nan nan nan 2 5 1 1 0 0 nan nan nan nan nan nan nan 0 0 0 0 nan nan nan nan nan nan nan nan nan nan nan nan 0 0 nan nan nan nan nan nan nan nan nan nan nan nan nan 2
104 103 100 96 96 94 95 101 103 103 105 109 113 113 59 13 5 5 5 7 7 9 5 4 4 3 1 0 nan nan nan nan nan nan nan 1 nan nan nan 1 1 11 7 0 0 0 5 0 0 nan nan nan nan nan nan 0 0 nan nan nan nan nan nan nan nan nan nan nan nan nan nan nan nan nan nan nan nan nan nan nan nan nan nan 1 1 14
81 76 79 81 81 84 89 91 90 90 82 81 85 85 54 10 4 4 4 3 3 0 1 1 1 0 0 0 nan nan nan nan nan nan nan nan 0 0 1 6 6 6 3 0 0 0 0 nan nan nan nan nan nan nan nan 2 2 nan 0 nan nan nan nan nan nan nan nan nan nan nan nan nan nan nan nan nan nan nan nan nan nan nan nan 6 6 20
19 45 50 63 63 68 59 26 47 47 65 70 74 74 59 14 4 4 nan nan nan nan nan 1 1 1 nan 0 nan nan nan nan nan nan nan 2 3 3 1 3 3 1 1 0 0 nan nan nan nan nan nan nan 10 10 9 6 6 14 5 nan nan nan 0 0 0 0 nan nan nan nan nan nan nan nan nan nan nan nan nan nan nan nan 1 18 18 20
nan nan nan nan nan nan nan nan 0 0 53 72 69 69 36 nan nan nan nan nan nan nan nan nan nan 0 0 nan nan nan nan nan 7 7 14 2 nan nan nan nan nan nan 2 1 1 nan nan nan nan nan nan nan nan nan nan nan nan 2 11 6 6 nan nan nan nan nan nan nan nan nan nan nan nan nan nan nan nan nan nan nan nan nan 9 28 28 20
nan nan nan nan nan nan nan nan nan nan nan nan nan nan 1 3 1 1 nan nan nan nan nan nan nan 0 0 1 nan nan nan nan 0 0 0 nan nan nan nan 1 1 1 3 9 9 4 nan nan nan nan nan nan nan nan nan nan nan nan 3 19 19 31 2 0 0 0 nan nan nan nan nan nan nan nan nan nan nan nan nan nan nan nan 20 29 29 8
1 nan nan nan nan nan nan nan nan nan nan nan nan nan nan nan 5 5 1 0 0 1 1 0 0 nan nan nan nan nan nan nan 2 2 6 nan nan nan nan 1 1 2 3 4 4 6 1 nan nan nan nan nan nan nan nan nan nan nan 1 13 13 27 40 13 13 7 5 2 2 2 nan nan nan nan nan nan nan nan nan nan nan nan 8 25 25 2
nan nan nan nan nan nan nan nan nan nan nan nan nan nan nan nan nan nan 1 0 0 nan 1 1 1 nan nan nan nan nan nan nan 3 3 4 0 1 1 1 1 1 1 1 2 2 2 1 1 1 0 nan nan nan nan nan nan nan nan 1 11 11 22 47 35 35 21 15 9 5 5 1 nan nan nan nan nan nan nan nan nan nan nan 1 3 3 nan
nan nan nan nan nan nan nan nan nan nan nan nan nan nan nan nan nan nan nan nan nan nan nan nan nan nan nan nan nan nan nan nan 1 1 5 1 1 1 1 1 1 1 1 1 1 0 0 0 0 1 0 nan nan nan nan nan nan nan 2 7 7 17 36 32 32 23 13 8 4 4 3 1 nan nan nan nan nan nan nan nan nan nan nan nan nan nan
nan nan nan nan nan nan nan nan nan nan nan nan nan nan nan nan nan nan nan nan nan nan 2 nan nan nan nan nan nan nan nan nan 0 0 5 2 nan nan nan 0 0 1 0 0 0 0 nan nan nan 1 2 nan nan nan nan nan nan 1 4 6 6 13 34 11 11 12 10 6 4 4 3 3 0 0 nan nan nan nan nan nan nan nan nan nan nan nan
nan nan nan nan nan nan nan nan nan nan nan nan nan nan nan nan nan nan nan nan nan nan nan 2 2 2 6 nan nan nan nan nan nan nan 2 nan nan nan nan nan nan 2 1 0 0 nan 0 nan nan 0 0 nan nan nan nan nan nan 0 2 7 7 24 42 4 4 8 7 7 6 6 5 3 1 1 nan nan nan nan nan nan nan nan nan nan nan nan
nan nan nan nan nan nan nan nan nan nan nan nan nan nan nan nan nan nan nan nan nan nan nan nan nan nan 5 11 1 1 nan nan nan nan nan nan nan nan nan nan nan 1 1 0 0 0 nan nan nan nan nan nan nan nan nan nan nan 1 2 8 8 32 32 6 6 6 8 12 10 10 5 3 5 5 5 0 nan nan nan nan nan nan nan nan nan nan
nan nan nan nan nan nan nan nan nan nan nan nan nan nan nan nan nan nan nan nan nan nan nan nan nan nan nan nan 6 6 5 0 nan nan nan nan nan nan nan nan nan nan 0 0 0 1 0 nan nan nan nan nan nan nan nan 0 0 1 2 8 8 24 27 1 1 3 11 16 10 10 8 9 12 12 19 8 1 1 1 nan nan nan nan nan nan nan
nan nan nan 0 0 nan nan nan nan nan nan nan 0 0 nan nan nan nan nan nan nan nan nan nan nan nan nan 0 2 2 3 0 2 2 nan nan nan nan nan nan nan nan 0 nan nan 0 0 nan nan nan 1 nan nan nan nan 0 0 0 2 7 7 22 21 nan nan 0 11 20 16 16 15 19 24 24 20 4 1 1 1 1 1 nan nan nan nan nan
1 nan nan nan nan nan nan nan nan nan nan nan nan nan nan nan nan nan nan nan nan nan nan nan nan nan nan nan nan nan nan nan 0 0 nan nan nan nan nan nan nan nan 0 0 0 0 1 nan nan 0 nan 0 1 1 0 0 0 2 2 3 3 19 27 nan nan nan 13 12 16 16 22 22 18 18 13 nan 0 0 1 1 1 nan nan nan nan nan
8 1 nan nan nan nan nan nan nan nan nan nan nan nan nan nan nan nan nan nan nan nan nan nan nan nan nan nan nan nan nan nan 0 0 nan nan nan nan nan nan nan nan nan 0 0 1 1 1 1 1 0 0 nan nan nan 0 0 1 1 1 1 9 37 nan nan nan 6 7 26 26 30 33 24 24 3 nan 3 3 0 0 0 nan nan nan nan nan
0 nan nan nan nan nan nan nan 0 0 nan nan nan nan nan nan nan nan nan nan nan nan nan nan nan nan nan nan nan nan nan nan nan nan nan nan nan nan nan nan nan nan nan nan nan 0 1 4 4 1 0 0 0 0 nan nan nan nan 0 1 1 6 36 5 5 nan 0 5 24 24 56 38 19 19 1 nan 4 4 nan nan nan nan nan nan nan nan
nan nan nan nan nan nan nan nan nan nan nan nan nan nan nan nan nan nan 0 nan nan nan nan nan nan nan nan nan nan nan nan nan nan nan nan 0 nan nan nan nan nan nan nan nan nan nan nan 3 3 1 0 0 0 0 0 nan nan nan nan 1 1 6 24 10 10 nan 0 8 22 22 58 32 12 12 nan nan nan nan nan nan nan nan nan nan nan nan
nan nan nan nan nan nan nan nan nan nan nan nan nan nan nan nan 0 0 nan nan nan nan nan nan nan nan nan nan nan nan nan nan nan nan nan 4 18 18 0 nan nan nan nan nan nan 0 nan nan nan nan 0 2 1 1 0 nan nan nan 0 1 1 4 22 0 0 nan 3 12 26 26 57 30 11 11 0 nan nan nan nan nan nan nan nan nan nan nan
nan nan nan nan nan nan nan nan nan nan nan nan nan nan nan nan nan nan nan nan nan nan nan nan nan nan nan nan nan nan nan nan nan nan nan nan nan nan 1 nan nan nan nan nan nan nan nan nan nan nan 1 3 1 1 0 nan nan nan 0 1 1 4 28 nan nan nan nan 7 32 32 47 23 9 9 0 nan nan nan nan nan nan nan nan nan nan nan
nan nan nan nan nan nan nan nan nan nan nan nan nan nan nan nan nan nan nan nan nan nan nan nan nan nan nan nan nan nan nan nan nan nan nan nan nan nan nan 0 0 1 nan nan nan nan nan nan nan nan 1 1 0 0 0 1 1 1 1 2 2 9 25 3 3 nan nan 3 38 38 52 15 6 6 nan nan nan nan nan nan nan nan nan nan nan nan
nan nan nan nan nan nan nan nan nan nan nan nan nan nan nan nan nan nan nan nan nan nan nan nan nan nan nan nan nan nan nan nan nan nan nan nan nan nan nan nan nan nan 1 2 2 2 0 nan nan 0 0 0 0 0 1 3 3 4 3 6 6 16 23 nan nan nan nan nan 38 38 44 16 3 3 nan nan nan nan nan nan nan nan nan nan nan nan
nan nan nan nan nan nan nan nan nan nan nan nan nan nan nan 1 11 11 nan nan nan nan nan nan nan nan nan nan nan nan 0 nan nan nan nan nan nan nan nan nan nan nan 0 0 0 1 1 0 0 0 0 1 1 1 3 7 7 7 7 10 10 16 5 nan nan nan nan nan 25 25 38 7 1 1 nan nan nan nan nan nan nan nan nan nan nan nan
nan nan nan nan nan nan nan nan nan nan nan nan nan nan nan nan nan nan nan nan nan nan nan nan nan nan nan nan nan nan nan nan nan nan nan nan nan nan nan nan nan nan 0 nan nan 0 0 0 0 1 4 6 9 9 15 14 14 8 2 0 0 nan nan nan nan nan nan nan 5 5 14 3 nan nan nan nan nan nan nan nan nan nan nan nan nan nan
nan nan nan nan nan nan nan nan nan nan nan nan nan nan nan nan nan nan nan nan nan nan nan nan nan nan nan nan nan nan nan nan nan nan nan nan nan nan nan nan nan nan 0 nan nan nan nan 0 0 0 3 10 8 8 6 7 7 1 nan nan nan nan nan nan nan nan nan nan nan nan 3 0 nan nan nan nan nan nan nan nan nan nan nan nan nan nan
CIN
-0 -0 nan nan nan nan nan nan nan nan nan nan nan nan nan nan nan nan nan nan nan nan nan nan nan nan nan -0 -0 -0 -0 -0 -0 -0 -0 -0 -0 -0 -0 -0 -0 -0 -0 -0 -0 -0 -0 -0 -0 -0 -0 -0 -0 -0 -0 -0 -0 -0 -0 -0 -0 -0 -0 -0 -0 -0 -0 -0 -0 -0 -0 -0 -0 -0 -0 -0 -1 -1 -0 -0 -0 -1 -21 -56 -56 nan
nan nan nan nan nan nan nan nan nan nan nan nan nan nan nan nan nan nan nan nan nan nan nan nan nan nan nan -1 -0 -0 -0 -0 -0 -0 -0 -0 -0 -0 -0 -0 -0 -0 -0 -0 -0 -0 -0 -0 -0 -0 -0 -0 -0 -0 -0 -0 -0 -0 -0 -0 -0 -0 -0 -0 -0 -0 -0 -0 -0 -0 -0 -0 -0 -0 -0 -0 -0 -0 -0 -0 -0 -2 -19 -56 -56 -65
-0 -0 -0 nan nan nan nan nan nan nan nan nan nan nan nan nan nan nan nan nan nan nan nan nan nan nan nan -18 -0 -0 -0 -0 -0 -0 -0 -0 -0 -0 -0 -0 -0 -0 -0 -0 -0 -0 -0 -0 -0 -0 -0 -0 -0 -0 -0 -0 -0 -0 -0 -0 -0 -0 -0 -0 -0 -0 -0 -0 -0 -0 -0 -0 -0 -0 -0 -0 -0 -0 -0 -0 -0 -8 -32 -54 -54 -56
nan -0 nan nan nan nan nan nan nan nan nan nan nan nan nan nan nan nan nan nan nan nan nan nan nan nan nan nan -0 -0 -0 -0 -0 -0 -0 -0 -0 -0 -0 -0 -0 -0 -0 -0 -0 -0 -0 -0 -0 -0 -0 -0 -0 -0 -0 -0 -0 -0 -0 -0 -0 -0 -0 -0 -0 -0 -0 -0 -0 -0 -0 -0 -0 -0 -0 nan -0 -0 -0 -0 -0 -16 -32 -48 -48 -57
nan nan nan -0 -0 nan nan nan nan nan nan nan nan nan nan nan nan nan nan nan nan nan nan nan nan nan nan nan -0 -0 -0 -0 -0 -0 -0 -0 -0 -0 -0 -0 -0 -0 -0 -0 -0 -0 -0 -0 -0 -0 -0 -0 -0 -0 -0 -0 -0 -0 -0 -0 -0 -0 -0 -0 -0 -0 -0 -0 -0 -0 -0 -0 -0 -0 -0 nan -0 -0 -0 -0 -0 -25 -19 -36 -36 -54
nan -0 -0 -1 -1 -1 nan nan nan nan nan nan nan nan nan nan nan nan nan nan nan nan nan -14 -14 nan nan nan -0 -0 -0 -0 -0 -0 -0 -0 -0 -0 -0 -0 -0 -0 -0 -0 -0 -0 -0 -0 -0 -0 -0 -0 -0 -0 -0 -0 -0 -0 -0 -0 -0 -0 -0 -0 -0 -0 -0 -0 -0 -0 -0 -0 -0 -0 -0 nan -0 -0 -0 -0 -0 -0 -18 -36 -36 -58
nan -0 -0 -0 -0 -5 -21 nan nan nan nan nan nan nan nan nan nan nan nan nan nan nan nan nan nan nan nan nan -0 -0 -0 -0 -0 -0 -0 -0 -0 -0 -0 -0 -0 -0 -0 -0 -0 -0 -0 -0 -0 -0 -0 -0 -0 -0 -0 -0 -0 -0 -0 -0 -0 -0 -0 -0 -0 -0 -0 -0 -0 -0 -0 -0 -0 -0 -1 nan -0 -0 -0 -0 -0 -0 -18 -35 -35 -55
-3 nan nan -4 -4 nan nan nan nan nan nan nan nan nan nan nan nan nan nan nan nan nan nan nan nan nan nan nan nan nan nan nan nan nan -0 -0 -0 -0 -0 -0 -0 -0 -0 -0 -0 -0 -0 -0 -0 -0 -0 -0 -0 -0 -0 -0 -0 -0 -0 -0 -0 -0 -0 -0 -0 -0 -0 -0 -0 -0 -0 -0 -2 -2 -3 nan nan nan -0 -0 -0 -0 -0 -83 -83 -31
nan nan -0 nan nan nan nan nan nan nan nan nan nan nan nan nan nan nan nan nan nan nan nan nan nan nan nan nan nan nan nan -0 nan nan nan nan -8 -8 -0 -0 -0 -0 -0 -0 -0 -0 -0 -0 -0 -0 -0 -0 -0 -0 -0 -0 -0 -0 -0 -0 -0 -0 -0 -0 -0 -0 -0 -0 -0 -0 -0 -0 -2 -2 nan nan nan nan nan -0 -0 -0 -0 nan nan -57
nan nan nan nan nan nan nan nan nan nan nan nan nan nan nan nan -6 -6 nan nan nan nan nan -5 -5 nan nan nan nan nan nan -0 -0 -0 -0 -0 -0 -0 -0 -0 -0 -0 -0 -0 -0 -0 -0 -0 -0 -0 -0 -0 -0 -0 -0 -0 -0 -0 -0 -0 -0 -0 -0 -0 -0 -0 -0 -0 -0 -0 -0 -0 -1 -1 nan nan nan nan nan -0 -0 -0 -0 nan nan nan
-0 nan nan nan nan nan nan nan nan nan nan nan nan nan nan -20 -15 -15 -5 nan nan nan nan -3 -3 -1 nan nan nan nan nan nan nan nan -0 -0 -0 -0 -0 -0 -0 -0 -0 -0 -0 -0 -0 -0 -0 -0 -0 -0 -0 -0 -0 -0 -0 -0 -0 -0 -0 -0 -0 -0 -0 -0 -0 -0 -0 -0 -0 -0 -1 -1 nan nan nan nan nan nan nan -0 -0 nan nan nan
nan nan nan nan nan nan nan nan nan nan nan nan nan nan -1 nan -23 -23 -4 -2 -2 nan nan nan nan -11 nan nan nan nan nan nan -1 -1 -6 -12 -10 -10 nan nan nan -0 -0 -0 -0 -0 -0 -0 -0 -0 -0 -0 -0 -0 -0 -0 -0 -0 -0 -0 -0 -0 -0 -0 -0 -0 -0 -0 -0 -0 -0 -0 -0 -0 nan nan nan nan nan nan nan -0 -0 -0 -0 nan
nan nan nan nan nan nan nan nan nan nan nan nan -5 -5 -3 -8 -15 -15 -14 -5 -5 -3 nan nan nan nan nan nan nan nan nan -5 -5 -5 -8 nan nan nan nan nan nan nan nan nan nan nan -0 -0 -0 -0 -0 -0 -0 -0 -0 -0 -0 -0 -0 -0 -0 -0 -0 -0 -0 -0 -0 -0 -0 -0 -0 -0 -0 -0 nan nan nan nan nan nan nan nan -0 -0 -0 nan
nan nan nan nan nan nan nan nan nan nan -5 nan -5 -5 -9 -11 -11 -11 nan nan nan nan -1 -0 -0 nan nan nan nan nan -8 -0 -12 -12 nan nan nan nan nan nan nan nan nan nan nan nan -0 -0 -0 -0 -0 -0 -0 -0 -0 -0 -0 -0 -0 -0 -0 -0 -0 -0 -0 -0 -0 -0 -0 -0 -0 -0 -0 -0 nan nan nan nan nan nan nan nan -0 -0 -0 nan
nan -12 nan -7 -7 -7 nan nan nan nan -7 -7 -9 -9 -8 -11 -12 -12 nan nan nan -6 -0 -0 -0 -5 nan nan nan nan -13 -8 nan nan nan nan nan nan nan nan nan nan nan nan nan nan nan -4 -4 nan nan -0 -0 -0 -0 -0 -0 -0 -0 -0 -0 -0 -0 -0 -0 -0 -0 -0 -0 -0 -0 -0 -1 -1 nan nan nan nan nan nan nan nan -0 -0 -0 nan
-13 -10 -9 -8 -8 -8 -11 -10 -8 -8 -6 -7 -8 -8 -9 -9 nan nan -6 -3 -3 -2 -0 -0 -0 nan nan nan nan nan nan nan nan nan nan nan nan nan nan nan nan nan nan nan nan nan nan nan nan nan nan -0 -0 -0 -0 -0 -0 -0 -0 -0 -0 -0 -0 -0 -0 -0 -0 -0 -0 -0 -0 -1 -1 -1 nan nan nan nan nan nan nan nan -0 -0 -0 nan
-13 -12 -10 -8 -8 -8 -11 -11 -9 -9 -9 -8 -12 -12 -11 nan nan nan -5 -3 -3 -0 -0 -0 -0 -0 nan nan nan nan nan nan nan nan nan nan nan nan nan nan nan nan nan nan nan nan nan nan nan nan -2 -0 -0 -0 -0 -0 -0 -0 -0 -0 -0 -0 -0 -0 -0 -0 -0 -0 -0 -0 -0 -1 nan nan nan nan nan nan nan nan nan nan nan -0 -0 -1
-14 -12 -10 -8 -8 -8 -10 nan -14 -14 -15 -11 nan nan nan nan -10 -10 -4 -3 -3 -0 -0 -0 -0 -0 -0 -0 nan nan nan -9 -5 -5 nan nan nan nan nan nan nan nan nan nan nan nan nan nan nan -6 -0 -0 -0 -0 -0 -0 -0 -0 -0 -0 -0 -0 -0 -0 -0 -0 -0 -0 -0 -0 -1 -1 nan nan nan nan nan nan nan nan nan nan nan -0 -0 -0
-10 -9 -10 -8 -8 -9 nan nan nan nan nan nan nan nan -8 nan -6 -6 nan nan nan nan nan -0 -0 -0 -0 -0 nan nan nan -11 -2 -2 -1 nan nan nan nan -9 -9 -3 nan nan nan nan nan -6 -6 -0 -0 -0 -0 -0 -0 -0 -0 -0 -0 -0 -0 -0 -0 -0 -0 -0 -0 -0 -0 -0 -1 -2 nan nan nan nan nan nan nan nan nan nan nan -0 -0 -0
-6 -5 -6 nan nan nan nan nan nan nan nan nan -8 -8 -6 -6 nan nan nan nan nan nan nan nan nan -0 -0 -6 nan nan -16 -10 -3 -3 -2 nan nan nan nan -6 -6 -1 -1 -7 -7 -6 -4 -5 -5 -3 -0 -0 -0 -0 -0 -0 -0 -0 -0 -0 -0 -0 -0 -0 -0 -0 -0 -0 -0 -0 -1 -3 nan nan nan nan nan nan nan nan nan nan nan -0 -0 -0
-3 nan nan nan nan nan nan nan nan nan -1 -0 -5 -5 nan nan nan nan nan nan nan nan nan nan nan -3 -3 -4 -8 -8 -22 -8 -2 -2 -2 nan nan nan nan -9 -9 -2 -0 -4 -4 -3 -6 nan nan nan -0 -0 -0 -0 -0 -0 -0 -0 -0 -0 -0 -0 -0 -0 -0 -0 -0 -0 -0 -0 -1 -4 nan nan nan nan nan nan nan nan nan nan nan -0 -0 -0
nan nan nan nan nan nan nan nan -3 -3 -3 nan nan nan nan nan nan nan nan nan nan nan nan nan nan -8 -7 -6 -10 -10 -24 -9 -3 -3 -1 -0 nan nan nan -9 -9 -2 -0 nan nan nan nan nan nan nan -0 -0 -0 -0 -0 -0 -0 -0 -0 -0 -0 -0 -0 -0 -0 -0 -0 -0 -0 -0 -1 -4 nan nan nan nan nan nan nan nan nan nan nan -0 -0 -0
nan nan nan nan nan nan nan nan nan nan nan nan nan nan nan nan nan nan nan nan nan nan nan nan nan nan -6 -3 -12 -12 -27 -20 -5 -5 -1 -0 nan nan nan -6 -6 -0 -0 nan nan nan nan nan nan nan -0 -0 -0 -0 -0 -0 -0 -0 -0 -0 -0 -0 -0 nan nan -0 -0 -0 -0 -0 -0 -3 nan nan nan nan nan nan nan nan nan nan nan -0 -0 -0
-28 -15 -14 -39 -39 nan nan nan nan nan nan nan nan nan nan nan nan nan nan nan nan nan nan nan nan nan -3 -3 -11 -11 nan -11 -3 -3 -0 -0 nan nan nan -3 -3 -0 -1 nan nan nan -7 -8 -8 nan nan -0 -0 -0 -0 -0 -0 -0 -0 -0 -0 -0 nan nan nan nan -0 -0 -0 -0 -0 -2 nan nan nan nan nan nan nan nan nan nan nan -0 -0 -0
-22 nan nan nan nan nan nan nan nan nan nan nan nan nan nan nan -0 -0 nan nan nan nan nan -2 -2 -2 -4 -0 -5 -5 -16 -25 -11 -11 -0 -0 nan nan -6 -2 -2 -0 -1 nan nan -4 -4 nan nan nan nan -0 -0 -0 -0 -0 -0 -0 -0 -0 -0 nan nan nan nan nan nan -0 -0 -0 -0 -2 nan nan nan nan nan nan nan nan nan nan nan -0 -0 -0
-0 -1 -0 -0 -0 -0 -0 -0 -0 -0 -0 -2 -4 -4 -2 -0 -0 -0 -1 -3 -3 -2 -1 -2 -2 -3 -4 -3 -5 -5 nan nan nan nan -1 -0 -0 -0 -5 nan nan -0 -0 -6 -6 -2 -4 nan nan nan nan nan -0 -0 -0 -0 -0 -0 -0 -0 -0 nan nan nan nan nan nan nan -0 -0 -0 -2 nan nan nan nan nan nan nan nan nan nan nan -1 -1 -1
-0 -0 -0 -0 -0 -0 -0 -0 -0 -0 -0 -0 -0 -0 -1 -1 -2 -2 -2 -3 -3 -3 -3 -2 -2 -3 -3 -4 -8 -8 nan nan -19 -19 -10 -0 -0 -0 nan nan nan -0 -0 -5 -5 -8 -3 nan nan nan nan nan nan nan -0 -0 -0 -0 nan nan nan nan nan nan nan nan nan nan nan nan -0 -2 nan nan nan nan nan nan nan nan nan nan nan nan nan -2
-0 -0 -0 -0 -0 -0 -0 -0 -0 -0 -0 -0 -0 -0 -0 -1 -1 -1 -1 -3 -3 -3 -2 -2 -2 -2 -2 -4 nan nan nan nan nan nan nan -4 nan nan nan -0 -0 -1 -0 -4 -4 -5 -0 -1 -1 nan nan nan nan nan nan -0 -0 nan nan nan nan nan nan nan nan nan nan nan nan nan nan nan nan nan nan nan nan nan nan nan nan nan nan -1 -1 -0
-0 -0 -0 -0 -0 -0 -0 -0 -0 -0 -0 -0 -0 -0 -0 -2 -1 -1 -2 -4 -4 -6 -2 -1 -1 -1 -2 -2 nan nan nan nan nan nan nan nan -0 -0 -0 -0 -0 -2 -0 -2 -2 -5 -5 nan nan nan nan nan nan nan nan -0 -0 nan -0 nan nan nan nan nan nan nan nan nan nan nan nan nan nan nan nan nan nan nan nan nan nan nan nan -1 -1 -0
-0 -0 -0 -0 -0 -0 -0 -0 -0 -0 -0 -0 -0 -0 -0 -1 -2 -2 nan nan nan nan nan -0 -0 -0 nan -2 nan nan nan nan nan nan nan -0 -0 -0 -3 -1 -1 -2 -0 -0 -0 nan nan nan nan nan nan nan -1 -1 -0 -0 -0 -0 -1 nan nan nan -0 -0 -0 -0 nan nan nan nan nan nan nan nan nan nan nan nan nan nan nan nan -3 -0 -0 -0
nan nan nan nan nan nan nan nan -0 -0 -0 -0 -0 -0 -0 nan nan nan nan nan nan nan nan nan nan -0 -1 nan nan nan nan nan -8 -8 -0 -0 nan nan nan nan nan nan -1 -0 -0 nan nan nan nan nan nan nan nan nan nan nan nan -0 -0 -1 -1 nan nan nan nan nan nan nan nan nan nan nan nan nan nan nan nan nan nan nan nan nan -1 -0 -0 -0
nan nan nan nan nan nan nan nan nan nan nan nan nan nan -0 -0 -0 -0 nan nan nan nan nan nan nan -0 -1 -0 nan nan nan nan -0 -0 -7 nan nan nan nan -1 -1 -1 -1 -1 -1 -0 nan nan nan nan nan nan nan nan nan nan nan nan -0 -0 -0 -0 -7 -38 -38 -45 nan nan nan nan nan nan nan nan nan nan nan nan nan nan nan nan -0 -0 -0 -2
-0 nan nan nan nan nan nan nan nan nan nan nan nan nan nan nan -0 -0 -0 -1 -1 -1 -1 -1 -1 nan nan nan nan nan nan nan -0 -0 -0 nan nan nan nan -1 -1 -1 -2 -1 -1 -1 -1 nan nan nan nan nan nan nan nan nan nan nan -0 -0 -0 -0 -2 -5 -5 -12 -1 -10 -8 -8 nan nan nan nan nan nan nan nan nan nan nan nan -2 -1 -1 -5
nan nan nan nan nan nan nan nan nan nan nan nan nan nan nan nan nan nan -0 -1 -1 nan -2 -1 -1 nan nan nan nan nan nan nan -0 -0 -0 -3 -0 -0 -0 -1 -1 -1 -1 -1 -1 -1 -1 -1 -1 -1 nan nan nan nan nan nan nan nan -1 -0 -0 -0 -1 -2 -2 -2 -2 -4 -6 -6 -15 nan nan nan nan nan nan nan nan nan nan nan -6 -12 -12 nan
nan nan nan nan nan nan nan nan nan nan nan nan nan nan nan nan nan nan nan nan nan nan nan nan nan nan nan nan nan nan nan nan -0 -0 -0 -2 -1 -1 -0 -1 -1 -1 -1 -1 -1 -1 -1 -1 -1 -0 -1 nan nan nan nan nan nan nan -1 -0 -0 -0 -1 -3 -3 -3 -4 -6 -9 -9 -10 -11 nan nan nan nan nan nan nan nan nan nan nan nan nan nan
nan nan nan nan nan nan nan nan nan nan nan nan nan nan nan nan nan nan nan nan nan nan -0 nan nan nan nan nan nan nan nan nan -0 -0 -0 -2 nan nan nan -1 -1 -2 -1 -1 -1 -1 nan nan nan -0 -0 nan nan nan nan nan nan -3 -1 -0 -0 -0 -1 -7 -7 -6 -6 -7 -10 -10 -8 -7 -9 -9 nan nan nan nan nan nan nan nan nan nan nan nan
nan nan nan nan nan nan nan nan nan nan nan nan nan nan nan nan nan nan nan nan nan nan nan -0 -0 -0 -0 nan nan nan nan nan nan nan -1 nan nan nan nan nan nan -0 -1 -1 -1 nan -1 nan nan -0 -0 nan nan nan nan nan nan -1 -0 -0 -0 -0 -1 -7 -7 -6 -7 -6 -7 -7 -7 -6 -7 -7 nan nan nan nan nan nan nan nan nan nan nan nan
nan nan nan nan nan nan nan nan nan nan nan nan nan nan nan nan nan nan nan nan nan nan nan nan nan nan -0 -0 -2 -2 nan nan nan nan nan nan nan nan nan nan nan -0 -1 -1 -1 -1 nan nan nan nan nan nan nan nan nan nan nan -0 -0 -0 -0 -0 -1 -5 -5 -8 -4 -5 -6 -6 -8 -7 -5 -5 -4 -6 nan nan nan nan nan nan nan nan nan nan
nan nan nan nan nan nan nan nan nan nan nan nan nan nan nan nan nan nan nan nan nan nan nan nan nan nan nan nan -0 -0 -0 -1 nan nan nan nan nan nan nan nan nan nan -2 -2 -2 -1 -1 nan nan nan nan nan nan nan nan -3 -3 -1 -1 -0 -0 -0 -1 -9 -9 -8 -3 -4 -4 -4 -4 -3 -4 -4 -1 -2 -1 -1 -1 nan nan nan nan nan nan nan
nan nan nan -0 -0 nan nan nan nan nan nan nan -0 -0 nan nan nan nan nan nan nan nan nan nan nan nan nan -0 -0 -0 -0 -1 -0 -0 nan nan nan nan nan nan nan nan -1 nan nan -1 -1 nan nan nan -0 nan nan nan nan -3 -3 -2 -0 -0 -0 -0 -1 nan nan -9 -3 -3 -2 -2 -2 -2 -2 -2 -2 -3 -2 -2 -2 -2 -2 nan nan nan nan nan
-0 nan nan nan nan nan nan nan nan nan nan nan nan nan nan nan nan nan nan nan nan nan nan nan nan nan nan nan nan nan nan nan -1 -1 nan nan nan nan nan nan nan nan -1 -1 -1 -1 -0 nan nan -1 nan -1 -1 -1 -1 -2 -2 -1 -0 -0 -0 -0 -0 nan nan nan -3 -3 -2 -2 -2 -3 -5 -5 -4 nan -3 -3 -194 -161 -161 nan nan nan nan nan
-0 -0 nan nan nan nan nan nan nan nan nan nan nan nan nan nan nan nan nan nan nan nan nan nan nan nan nan nan nan nan nan nan -2 -2 nan nan nan nan nan nan nan nan nan -1 -1 -1 -1 -0 -0 -1 -1 -1 nan nan nan -3 -3 -2 -1 -1 -1 -0 -0 nan nan nan -3 -3 -2 -2 -3 -3 -3 -3 -10 nan -151 -151 -205 -169 -169 nan nan nan nan nan
-0 nan nan nan nan nan nan nan -0 -0 nan nan nan nan nan nan nan nan nan nan nan nan nan nan nan nan nan nan nan nan nan nan nan nan nan nan nan nan nan nan nan nan nan nan nan -1 -1 -0 -0 -1 -3 -2 -1 -1 nan nan nan nan -2 -1 -1 -0 -0 -0 -0 nan -4 -3 -1 -1 -1 -3 -4 -4 -8 nan -150 -150 nan nan nan nan nan nan nan nan
nan nan nan nan nan nan nan nan nan nan nan nan nan nan nan nan nan nan -0 nan nan nan nan nan nan nan nan nan nan nan nan nan nan nan nan -1 nan nan nan nan nan nan nan nan nan nan nan -1 -1 -2 -3 -2 -1 -1 -1 nan nan nan nan -1 -1 -0 -0 -1 -1 nan -4 -3 -2 -2 -1 -4 -4 -4 nan nan nan nan nan nan nan nan nan nan nan nan
nan nan nan nan nan nan nan nan nan nan nan nan nan nan nan nan -0 -0 nan nan nan nan nan nan nan nan nan nan nan nan nan nan nan nan nan -1 -0 -0 -1 nan nan nan nan nan nan -1 nan nan nan nan -3 -1 -1 -1 -1 nan nan nan -2 -2 -2 -0 -0 -11 -11 nan -2 -3 -2 -2 -1 -4 -4 -4 -4 nan nan nan nan nan nan nan nan nan nan nan
nan nan nan nan nan nan nan nan nan nan nan nan nan nan nan nan nan nan nan nan nan nan nan nan nan nan nan nan nan nan nan nan nan nan nan nan nan nan -2 nan nan nan nan nan nan nan nan nan nan nan -1 -0 -0 -0 -2 nan nan nan -2 -1 -1 -0 -0 nan nan nan nan -4 -3 -3 -2 -4 -4 -4 -3 nan nan nan nan nan nan nan nan nan nan nan
nan nan nan nan nan nan nan nan nan nan nan nan nan nan nan nan nan nan nan nan nan nan nan nan nan nan nan nan nan nan nan nan nan nan nan nan nan nan nan -2 -2 -0 nan nan nan nan nan nan nan nan -1 -0 -1 -1 -3 -2 -2 -1 -1 -1 -1 -0 -0 -2 -2 nan nan -7 -3 -3 -2 -3 -3 -3 nan nan nan nan nan nan nan nan nan nan nan nan
nan nan nan nan nan nan nan nan nan nan nan nan nan nan nan nan nan nan nan nan nan nan nan nan nan nan nan nan nan nan nan nan nan nan nan nan nan nan nan nan nan nan -0 -0 -0 -0 -1 nan nan -1 -1 -0 -1 -1 -2 -2 -2 -1 -1 -0 -0 -0 -0 nan nan nan nan nan -4 -4 -2 -2 -4 -4 nan nan nan nan nan nan nan nan nan nan nan nan
nan nan nan nan nan nan nan nan nan nan nan nan nan nan nan -0 -0 -0 nan nan nan nan nan nan nan nan nan nan nan nan -0 nan nan nan nan nan nan nan nan nan nan nan -1 -0 -0 -0 -0 -1 -1 -1 -1 -1 -0 -0 -1 -1 -1 -1 -1 -0 -0 -0 -2 nan nan nan nan nan -5 -5 -3 -7 -10 -10 nan nan nan nan nan nan nan nan nan nan nan nan
nan nan nan nan nan nan nan nan nan nan nan nan nan nan nan nan nan nan nan nan nan nan nan nan nan nan nan nan nan nan nan nan nan nan nan nan nan nan nan nan nan nan -1 nan nan -0 -0 -0 -0 -0 -0 -0 -0 -0 -0 -0 -0 -1 -2 -4 -4 nan nan nan nan nan nan nan -9 -9 -6 -12 nan nan nan nan nan nan nan nan nan nan nan nan nan nan
nan nan nan nan nan nan nan nan nan nan nan nan nan nan nan nan nan nan nan nan nan nan nan nan nan nan nan nan nan nan nan nan nan nan nan nan nan nan nan nan nan nan -1 nan nan nan nan -0 -0 -0 -0 -0 -0 -0 -0 -0 -0 -3 nan nan nan nan nan nan nan nan nan nan nan nan -10 -14 nan nan nan nan nan nan nan nan nan nan nan nan nan nan
Wind_Speed
9 10 10 10 9 7 8 8 7 6 7 7 7 7 8 9 9 9 11 11 10 10 9 9 9 10 11 15 18 20 21 22 22 22 22 22 22 22 22 21 21 21 21 21 21 21 21 21 21 21 21 21 20 19 19 19 19 18 18 18 18 18 19 20 21 21 22 21 19 17 15 14 12 12 12 14 16 18 20 22 23 25 26 28 30 31
9 10 10 10 9 8 8 8 7 6 6 7 7 7 8 8 8 8 8 9 9 9 9 10 10 10 10 12 15 19 21 22 23 23 22 22 22 22 22 21 21 21 21 21 21 21 21 21 21 21 21 21 20 20 19 19 19 19 18 18 18 18 19 20 21 22 22 22 20 18 15 14 12 12 12 13 15 17 19 21 23 25 26 27 28 29
9 9 9 10 10 9 7 7 6 5 5 6 7 8 8 8 8 8 7 8 8 8 9 10 10 10 9 10 14 18 21 22 23 23 23 22 22 22 22 21 21 21 21 21 21 21 21 21 21 21 21 21 21 20 20 20 19 19 18 18 17 17 18 19 20 22 22 22 20 18 16 14 13 12 11 13 15 17 18 20 21 23 25 26 26 26
9 9 9 9 8 8 7 6 6 5 5 6 7 8 8 7 7 7 7 7 8 8 9 10 10 9 8 8 11 16 20 22 23 23 23 22 22 22 22 21 21 21 21 20 20 20 20 21 21 21 21 21 21 20 20 20 19 19 18 17 17 17 18 19 20 22 22 22 20 18 16 15 14 12 11 12 14 16 17 18 20 22 24 24 25 26
9 9 9 8 8 7 6 5 5 5 6 6 6 7 7 6 6 6 7 7 8 9 9 9 8 8 7 7 10 15 19 22 23 23 23 23 23 22 22 21 21 20 20 20 20 20 20 20 20 20 20 20 20 20 19 19 19 19 18 17 17 17 18 19 20 22 22 22 20 18 17 16 14 13 11 11 13 15 17 17 19 22 23 24 25 26
9 9 9 8 7 7 5 5 5 5 5 5 5 6 6 5 5 6 6 7 8 8 8 7 7 7 7 8 11 15 19 21 22 23 23 23 22 22 22 21 20 20 19 19 19 19 19 19 19 19 19 19 19 19 19 19 19 19 18 17 16 16 17 19 20 22 22 22 20 18 17 16 14 13 11 10 12 14 16 16 18 21 23 25 27 28
9 8 8 8 7 6 5 5 5 5 5 5 5 5 6 5 5 5 6 6 7 7 7 7 7 7 7 9 11 14 16 18 20 21 21 22 22 21 21 20 20 19 18 18 18 18 18 18 18 18 19 19 19 19 19 19 19 19 18 17 16 16 17 19 20 22 22 21 20 18 16 15 14 13 11 10 11 12 15 15 16 19 22 26 29 30
9 9 8 8 6 5 5 5 5 5 5 5 5 6 6 5 5 5 6 6 6 6 6 7 7 7 6 7 8 10 11 13 14 15 16 17 18 18 19 19 19 18 18 18 18 19 19 19 19 19 19 19 20 20 20 20 20 19 18 17 16 16 17 18 20 22 22 21 19 18 16 15 14 13 11 10 10 11 13 15 15 16 20 25 29 31
10 9 8 7 6 5 6 5 5 4 4 5 5 6 7 6 6 6 6 5 5 5 5 7 7 7 7 6 6 7 9 10 11 11 12 12 12 13 15 16 16 17 18 19 19 20 20 20 20 19 20 20 20 21 21 21 20 19 18 17 16 16 16 18 20 21 22 21 19 18 16 15 14 13 11 10 9 11 13 14 14 15 18 23 28 30
9 8 7 5 5 5 6 6 6 5 4 4 5 5 6 7 7 7 6 6 5 5 5 7 8 8 8 6 5 6 9 11 13 14 15 14 14 14 14 14 14 16 19 19 20 20 20 20 20 19 19 20 20 21 21 21 20 19 18 17 16 16 16 18 20 21 21 21 19 18 16 15 14 13 12 10 9 10 12 13 14 14 16 21 25 28
6 6 5 6 5 5 5 6 5 5 4 5 5 5 5 6 6 7 7 7 7 6 6 7 8 8 8 7 6 7 8 9 10 12 14 14 15 15 15 15 15 16 18 19 19 20 19 19 19 19 19 19 19 20 20 20 20 19 18 17 16 16 16 18 19 20 20 20 19 18 16 16 15 14 12 10 9 9 10 12 14 14 16 19 23 25
5 5 5 6 6 5 5 5 5 4 4 5 5 6 6 5 4 5 7 8 8 8 8 8 7 7 7 7 7 7 7 7 7 8 8 8 8 9 10 11 12 14 15 15 16 17 18 18 18 18 17 18 18 19 19 18 18 18 17 17 16 16 16 18 19 19 20 19 19 18 17 16 15 14 12 10 9 9 9 11 13 14 16 18 20 23
5 5 6 6 6 5 5 4 4 4 4 5 6 6 6 5 4 4 5 7 8 9 9 9 8 7 6 6 6 6 7 7 7 6 6 5 5 5 6 7 8 8 8 9 10 11 14 15 16 16 16 16 16 17 18 17 17 17 17 16 16 16 17 18 19 19 19 18 18 17 17 16 15 14 12 11 10 9 9 10 12 14 16 17 18 20
6 6 7 7 6 5 5 5 5 6 6 5 6 6 5 4 4 5 5 7 8 8 8 9 9 8 6 6 5 6 7 7 6 5 4 4 4 4 5 6 7 7 6 7 7 8 10 11 11 11 13 14 15 16 16 16 16 16 16 16 16 16 16 17 18 18 18 18 18 17 16 16 15 14 12 11 10 10 9 10 12 14 15 16 17 19
7 7 7 7 7 6 5 5 6 6 6 6 5 5 4 5 5 6 6 7 8 8 8 9 9 8 6 5 4 4 6 5 4 4 5 5 5 4 5 6 7 7 6 7 7 8 9 8 8 8 9 11 12 13 14 15 15 15 15 15 15 16 16 17 18 18 18 17 17 16 16 15 14 14 13 12 11 11 10 11 12 13 15 16 17 19
7 6 7 7 7 6 6 5 6 6 6 6 5 5 5 5 6 6 7 7 7 7 7 8 8 8 6 4 3 3 4 4 4 4 6 7 6 4 4 5 7 7 7 7 7 7 7 7 7 7 8 11 13 15 16 16 16 16 15 15 15 15 16 17 17 18 18 17 17 16 15 15 14 14 13 12 12 11 11 11 12 13 15 16 18 19
6 6 6 7 7 7 6 6 6 6 6 5 4 4 5 6 6 6 7 7 6 6 6 6 7 7 5 4 3 3 3 3 4 5 7 8 7 6 4 5 6 8 7 7 7 7 7 6 6 7 7 11 14 16 17 16 16 16 16 16 15 15 16 17 17 17 17 17 17 16 16 15 15 14 14 13 13 12 12 12 12 13 15 16 18 19
5 5 6 6 7 7 6 6 5 5 5 5 5 5 5 5 6 6 6 6 6 6 6 6 6 6 6 5 4 3 3 4 5 6 8 8 8 6 4 5 6 8 8 7 7 7 7 7 7 7 9 13 15 17 18 18 18 17 17 16 16 16 16 16 17 18 17 17 17 16 16 15 15 15 15 14 14 13 12 12 12 14 15 17 18 20
6 6 6 6 6 6 6 6 5 5 5 5 5 6 6 6 6 6 6 6 6 7 7 7 6 6 6 6 6 5 4 5 6 7 8 9 9 7 5 5 6 8 8 8 7 7 7 7 8 11 13 16 17 18 19 19 19 19 18 18 17 16 16 16 17 18 18 17 17 17 16 16 16 16 16 15 15 14 13 13 13 13 15 17 18 20
7 6 6 6 7 7 6 6 5 5 5 5 6 6 6 6 7 7 7 7 7 7 7 7 7 7 7 7 7 6 5 5 6 7 8 9 9 8 5 5 7 8 8 7 7 7 7 7 7 10 14 16 18 19 20 20 20 20 19 18 17 17 16 16 17 18 18 18 17 17 17 17 17 17 16 16 16 15 14 13 13 14 15 18 19 20
8 8 6 5 5 6 7 6 6 7 7 6 6 6 6 6 7 7 7 7 7 7 7 7 7 7 6 7 7 6 4 4 5 6 7 8 8 7 5 5 6 7 8 8 7 7 7 7 7 8 11 15 18 20 20 21 21 21 20 19 18 17 16 16 17 17 18 18 18 18 17 17 17 17 17 17 16 16 15 14 13 14 15 17 19 20
8 7 7 7 7 7 8 7 7 7 7 6 5 5 6 6 7 8 7 7 7 7 7 7 7 7 7 8 8 6 4 4 5 6 6 7 8 7 4 5 6 7 8 8 7 7 6 7 7 9 12 16 19 20 21 22 22 22 21 20 19 18 17 17 17 18 18 18 18 18 18 18 18 18 18 17 17 16 15 14 14 14 15 18 19 20
9 9 8 8 7 7 6 6 6 6 7 8 9 9 7 8 8 8 8 7 7 7 7 7 8 8 8 8 7 6 4 4 5 5 5 7 8 7 4 5 6 7 8 7 7 7 7 7 7 9 12 17 20 21 22 23 23 23 22 21 20 19 18 18 18 18 19 19 19 19 19 19 19 19 18 18 17 16 16 15 15 15 16 18 19 20
7 7 6 5 5 5 5 6 7 7 8 9 9 8 7 8 8 8 8 7 7 7 7 7 8 8 8 8 7 6 4 4 4 4 4 6 7 7 5 5 6 8 8 8 7 8 8 8 8 8 10 15 19 21 23 23 24 24 23 22 21 20 19 19 19 19 19 19 19 19 19 19 19 19 19 18 18 17 16 16 16 16 17 18 20 20
8 8 8 8 8 9 10 10 10 10 9 7 6 6 6 7 8 8 7 7 7 6 6 7 8 8 7 7 7 5 4 3 3 3 4 5 7 7 6 5 6 8 8 8 7 7 8 8 9 9 9 12 17 20 22 23 24 24 23 23 22 21 20 20 20 20 20 19 19 19 20 20 20 20 20 19 18 17 17 16 16 17 17 19 20 21
13 13 13 14 16 18 19 19 18 17 16 12 8 6 5 5 6 6 6 6 6 6 6 7 8 8 7 6 6 5 3 3 3 3 4 5 6 7 6 5 6 7 8 7 7 7 8 9 9 9 8 10 13 17 20 22 23 23 23 22 22 21 21 21 21 21 20 20 20 20 20 20 21 21 20 19 19 18 17 17 17 17 18 19 19 20
19 19 21 21 21 21 21 21 21 21 21 18 15 12 9 7 6 6 7 6 5 5 6 7 8 8 7 6 6 5 4 3 3 3 4 5 6 7 6 5 5 6 8 7 7 7 9 10 9 9 8 8 10 13 18 20 22 22 22 22 22 22 22 22 22 21 20 20 20 20 21 21 21 21 21 20 19 18 18 17 17 17 17 17 17 17
18 19 19 19 20 20 19 19 19 19 18 18 18 17 12 8 7 7 7 5 4 5 6 7 7 7 6 6 6 5 5 4 4 4 4 4 5 6 6 5 5 5 6 7 7 8 9 9 9 8 8 8 9 10 14 17 18 20 20 21 22 22 23 23 22 21 20 20 20 20 21 22 22 21 21 20 20 19 18 17 17 17 16 15 13 12
15 17 17 18 18 18 17 17 16 16 17 17 17 15 11 7 6 6 5 4 4 5 6 7 7 7 7 7 7 6 6 5 5 4 5 5 5 5 5 4 4 4 5 6 7 7 7 6 6 6 6 7 8 8 9 11 13 14 15 18 20 21 22 23 22 21 20 20 20 21 22 22 22 22 21 21 20 19 19 18 17 15 13 12 11 10
10 12 13 13 14 14 13 11 12 13 15 16 16 14 10 6 5 4 4 4 4 5 6 7 7 7 7 7 7 7 5 4 4 3 3 3 4 3 3 4 4 4 4 5 5 5 5 4 4 4 4 5 6 7 7 8 9 9 9 12 15 17 20 21 21 20 20 20 20 21 22 22 22 22 21 21 20 20 19 19 16 13 10 10 10 10
8 8 8 8 8 8 8 8 8 9 11 13 13 12 9 6 4 4 4 4 5 6 7 7 7 7 7 6 6 6 4 3 2 1 1 2 3 3 3 4 5 4 4 3 4 5 6 4 3 2 2 4 5 6 7 7 8 8 8 8 9 11 14 17 18 18 19 20 21 22 23 22 21 21 20 20 20 20 20 19 16 13 10 10 10 10
7 7 7 6 6 6 6 6 6 6 7 7 8 8 7 7 6 5 5 5 5 6 6 7 7 7 7 7 7 6 5 3 3 3 3 3 3 4 4 5 5 5 3 3 3 4 5 5 4 4 4 5 6 6 7 7 7 7 8 8 7 7 10 12 13 15 16 18 21 22 22 21 20 19 19 19 20 20 20 20 18 15 12 11 11 10
8 7 6 6 6 6 6 5 5 5 5 5 5 5 6 6 7 6 6 5 5 6 6 6 7 7 7 8 8 8 6 5 5 6 5 4 4 4 4 5 5 5 4 4 4 4 4 5 6 6 6 6 6 6 6 7 7 7 8 9 8 7 7 8 9 11 12 14 16 18 19 18 17 17 17 18 19 20 21 22 21 19 15 12 11 10
8 8 7 7 6 6 5 5 5 5 5 5 5 5 5 5 6 6 6 6 5 6 6 6 7 7 7 8 8 8 8 7 7 8 7 5 4 4 5 5 5 5 4 4 4 4 5 6 6 7 7 7 6 5 6 6 6 7 8 8 8 7 5 6 7 9 10 10 10 11 12 12 13 13 15 17 19 20 22 23 24 23 20 15 12 10
7 7 7 6 6 6 5 5 5 5 5 5 5 5 5 5 5 5 6 6 6 6 6 6 7 7 7 7 8 8 8 7 7 8 7 6 5 5 5 5 5 5 4 4 4 4 4 6 7 7 7 7 7 6 5 5 5 6 7 8 8 7 5 6 7 8 8 8 8 8 8 8 9 10 11 14 17 20 23 25 26 26 24 19 14 11
7 7 7 6 6 6 6 6 6 5 5 5 5 5 5 5 5 5 5 6 6 7 7 7 7 8 8 8 9 9 9 7 7 8 8 7 6 5 5 5 5 5 5 5 5 5 4 6 7 8 8 8 7 6 5 4 5 6 7 8 8 7 7 7 8 8 7 7 7 7 8 7 8 8 10 14 18 21 24 26 27 27 25 21 17 14
7 7 7 6 6 6 6 6 6 5 5 5 5 5 5 5 5 5 6 6 6 7 8 9 9 9 10 9 9 9 9 9 8 8 9 8 7 6 6 6 6 6 6 6 6 6 6 6 7 7 7 7 6 6 5 5 6 6 7 7 7 7 7 8 8 7 7 7 7 7 8 8 8 8 9 14 17 21 24 26 27 27 25 22 19 16
7 7 6 6 6 6 6 6 6 6 6 5 5 5 6 6 6 6 6 7 7 8 8 8 8 10 13 14 13 12 12 12 11 11 11 10 8 8 7 7 7 7 7 7 6 6 6 7 7 7 6 6 6 7 6 6 7 7 8 8 8 7 8 8 8 7 7 7 8 8 8 8 8 8 9 11 13 15 17 19 22 23 22 19 17 16
7 7 7 7 6 6 6 6 6 6 6 6 6 6 6 7 7 7 7 7 7 8 9 8 8 9 12 14 15 16 15 15 15 14 14 12 10 9 9 8 8 8 8 7 7 7 7 7 7 7 6 6 6 6 6 5 6 7 8 9 9 8 8 8 7 7 7 7 7 8 7 8 8 9 9 10 12 13 14 14 16 17 17 14 13 13
7 7 7 7 7 6 6 7 7 6 6 7 7 7 7 7 6 6 6 6 7 8 9 9 9 9 10 11 13 14 15 14 14 14 13 12 11 10 9 9 9 8 8 7 7 7 7 8 8 8 8 7 7 6 6 6 6 6 6 7 7 7 7 7 7 7 7 7 7 7 7 8 9 10 10 11 12 13 13 12 12 13 14 12 11 10
8 7 7 7 7 7 7 7 7 7 7 7 6 6 6 6 5 5 5 6 6 6 7 7 8 8 8 9 10 11 12 13 13 13 12 13 12 11 9 9 9 8 8 8 8 8 8 8 9 9 9 8 8 8 9 8 8 7 7 7 8 8 7 6 6 7 7 7 7 7 7 8 10 11 11 11 12 12 11 11 11 12 11 11 11 11
8 8 7 7 7 7 7 7 7 7 7 6 6 5 5 5 5 5 5 5 5 5 5 5 6 6 7 7 8 9 10 11 12 13 13 14 14 13 11 10 9 8 8 8 8 9 9 9 9 9 9 8 8 8 9 9 8 7 7 7 9 10 11 8 6 6 7 7 7 7 7 9 11 11 12 12 11 11 11 11 12 13 12 11 10 10
8 7 7 7 7 7 7 8 8 7 6 6 5 5 5 5 5 5 6 6 6 6 6 5 5 6 6 7 7 7 8 9 10 11 12 13 13 13 12 11 10 9 8 8 9 9 9 10 10 9 9 8 8 8 9 9 9 8 7 7 8 8 7 6 5 6 7 7 7 7 8 9 10 11 12 11 11 11 12 12 13 14 13 11 11 10
7 7 7 7 7 7 7 7 6 6 6 6 6 6 5 5 6 6 6 6 6 6 6 5 5 6 6 7 7 7 6 6 7 9 10 12 12 12 11 11 11 11 10 9 9 8 8 9 9 9 8 8 8 9 9 9 9 8 8 8 9 10 9 6 5 6 7 8 7 8 8 9 10 11 12 11 11 11 11 11 11 12 11 10 10 10
7 7 7 7 7 7 7 7 7 6 6 6 6 6 6 6 6 6 6 6 6 6 6 6 5 5 5 6 6 6 6 5 5 5 7 9 11 12 11 10 10 10 10 10 9 9 8 8 8 7 6 7 8 9 10 10 9 9 9 9 10 12 12 7 5 6 8 8 8 8 9 9 10 12 12 12 12 12 11 11 11 11 10 10 9 9
7 7 7 7 7 7 8 7 7 7 7 6 6 6 6 6 6 6 6 6 6 6 6 5 5 5 5 6 6 6 5 5 5 4 4 5 6 7 8 8 9 9 9 9 10 10 9 9 8 7 6 7 8 9 10 10 10 9 10 10 11 11 11 9 7 7 8 8 8 8 9 10 10 11 11 12 12 12 12 11 11 12 11 10 10 10
8 8 8 7 7 7 7 7 7 7 7 7 7 6 6 6 6 6 6 6 6 6 6 5 5 5 6 6 6 5 6 6 6 5 5 4 4 5 5 6 8 9 9 9 9 10 10 10 10 9 7 7 8 9 10 10 10 10 11 11 11 11 11 9 8 7 7 8 7 8 9 10 10 11 11 10 11 11 11 10 10 10 11 10 10 10
8 8 8 8 8 7 8 7 7 7 7 7 7 7 6 7 7 7 6 6 6 6 6 5 5 5 6 6 6 6 6 7 7 6 6 5 5 5 5 5 6 7 8 9 10 11 11 12 12 11 10 9 9 9 10 10 11 11 11 11 11 11 10 8 7 5 5 6 7 9 11 11 11 11 10 10 10 9 9 10 9 9 9 10 10 10
8 8 8 8 8 8 8 8 8 8 8 8 8 7 7 8 8 9 7 6 6 6 5 6 6 6 6 6 6 6 7 7 6 6 6 5 5 5 5 5 5 5 6 7 9 9 10 11 12 13 12 11 11 11 12 11 11 11 10 10 10 9 7 6 5 4 4 6 8 10 12 10 9 9 10 10 10 10 9 9 9 8 8 8 9 10
8 8 8 8 8 8 8 8 8 8 8 8 8 8 7 7 7 7 6 6 6 6 6 6 6 6 6 6 6 6 7 6 6 6 6 5 5 5 6 6 6 6 5 4 4 5 5 6 8 11 13 14 13 12 11 11 10 9 8 8 7 6 5 4 5 5 5 6 7 9 11 10 9 9 9 10 10 10 9 9 8 8 7 7 8 9
8 8 8 8 8 8 7 8 8 8 8 8 8 8 8 7 7 7 6 6 6 6 6 6 6 6 7 7 7 7 7 7 7 6 6 5 5 6 6 7 7 6 5 4 3 2 2 2 2 4 8 12 12 10 8 7 6 6 6 6 5 5 4 4 4 5 5 5 6 8 10 10 11 10 10 10 10 10 10 9 9 9 9 9 9 9
Wind_Direction
286 289 291 292 292 291 290 289 291 294 297 301 304 305 304 305 304 302 302 303 301 298 297 296 294 292 292 296 299 300 302 302 302 301 299 297 295 293 291 288 286 284 283 281 280 279 277 278 278 279 281 281 282 282 282 281 280 279 279 279 281 284 288 292 296 298 298 294 287 279 274 277 284 293 301 297 288 276 261 242 227 215 207 206 208 210
287 289 290 289 288 287 287 288 287 288 292 297 300 301 302 302 301 301 301 299 298 297 297 296 294 291 288 291 296 299 300 301 300 299 298 296 294 292 290 288 287 285 283 282 280 279 278 277 277 277 278 278 279 279 279 279 278 277 277 277 279 282 286 290 294 296 297 294 288 281 275 277 283 292 300 302 297 285 268 246 228 215 207 206 206 208
289 289 288 287 286 285 286 288 287 285 285 289 293 295 297 297 298 299 300 300 299 297 295 294 293 291 289 292 296 299 299 299 299 298 297 295 294 293 292 290 288 287 285 283 281 279 277 276 276 275 275 276 276 276 276 276 275 275 274 275 277 280 284 289 292 294 294 292 287 282 277 277 281 289 298 305 303 294 279 252 231 216 208 206 205 206
287 287 287 287 285 283 281 285 286 287 286 287 289 290 290 291 293 295 297 298 298 295 291 290 290 290 291 292 295 296 297 298 298 298 298 297 296 295 294 292 290 287 285 282 279 277 275 273 273 272 272 272 272 272 273 273 273 272 272 272 274 278 283 287 290 292 292 289 285 280 275 275 278 284 293 304 306 301 288 261 236 219 210 206 205 205
282 282 284 286 286 285 282 282 284 286 288 288 288 288 287 287 289 292 296 296 295 293 290 289 289 289 290 291 293 295 296 297 298 299 299 299 297 296 295 292 290 287 284 281 278 275 273 272 270 270 270 270 270 270 271 271 271 270 269 269 272 275 281 285 288 289 289 287 282 276 272 271 273 278 286 298 305 304 296 273 246 227 215 209 207 206
279 280 282 284 286 288 290 288 289 290 292 291 288 286 286 286 289 293 295 295 293 292 292 292 291 290 289 289 292 294 296 298 299 300 300 299 298 296 295 292 290 287 285 283 280 278 277 276 275 274 274 273 273 273 272 271 271 269 268 267 269 273 278 282 285 286 286 283 279 273 267 266 268 272 278 290 300 303 300 283 257 235 222 214 211 209
278 279 282 284 285 287 289 288 290 292 294 294 293 292 290 290 291 291 290 290 291 292 294 295 293 290 287 288 291 294 297 298 299 299 298 297 296 295 294 292 291 290 290 290 289 288 287 287 285 283 281 280 278 276 275 273 271 269 267 266 267 270 275 279 282 283 283 281 276 270 264 262 262 266 271 281 292 300 301 292 270 246 229 219 214 211
279 282 283 283 285 287 287 287 287 289 290 293 295 296 297 295 293 291 287 286 288 292 297 297 295 291 288 286 289 293 296 297 296 296 296 295 294 293 292 293 294 296 299 299 298 297 294 292 289 286 283 280 278 276 275 273 270 268 266 265 266 268 272 276 279 280 280 278 273 267 260 258 258 260 264 273 285 294 300 297 283 260 236 223 216 213
279 282 282 283 286 290 291 289 286 285 285 287 291 295 298 298 297 295 292 291 292 296 300 299 297 294 291 289 290 292 295 293 292 291 291 290 289 289 291 295 299 302 304 303 300 297 293 290 287 284 281 278 276 274 272 271 269 267 265 265 265 268 272 274 276 277 277 276 272 266 259 256 256 257 260 267 278 290 298 299 290 271 245 228 220 215
275 278 282 284 285 287 289 290 290 289 284 285 285 287 291 295 298 299 300 300 300 300 300 298 297 297 297 297 295 294 294 292 291 290 290 290 290 291 296 303 306 305 303 300 297 294 291 288 286 283 280 277 274 272 270 269 267 265 264 264 265 268 271 273 274 274 274 274 271 266 260 257 255 256 258 263 273 285 296 300 295 281 256 234 224 218
275 280 286 287 285 284 283 286 290 293 291 288 286 285 284 289 295 300 303 303 303 303 299 296 295 296 299 301 300 297 294 291 289 288 288 291 295 299 305 306 305 302 298 296 294 292 290 288 285 283 280 278 275 272 270 268 266 264 264 264 265 268 271 272 273 273 272 272 270 267 261 258 256 256 258 261 269 280 291 297 296 285 264 240 227 220
286 289 288 287 287 286 285 286 289 292 294 293 292 290 288 287 291 297 301 302 303 303 301 297 294 293 295 298 298 297 293 288 285 285 286 293 301 306 308 304 300 297 295 293 292 290 289 287 285 283 281 278 276 273 271 268 266 264 263 263 265 267 269 271 271 271 270 270 269 266 262 259 257 257 258 260 265 274 285 293 293 286 270 245 229 220
285 285 285 285 286 287 288 291 292 293 292 291 291 291 291 293 294 296 296 296 298 300 301 299 296 293 290 289 290 290 288 285 285 288 295 300 305 305 302 297 294 292 291 290 288 286 286 285 284 283 281 279 277 275 273 269 267 264 263 263 264 266 268 269 269 269 268 267 266 264 260 257 256 257 258 260 263 268 277 285 288 284 274 250 232 219
284 284 284 284 284 285 286 288 289 289 289 287 286 287 289 294 297 298 295 293 294 296 298 297 295 294 292 287 282 280 281 286 291 296 302 300 298 296 295 293 291 289 287 286 282 281 281 282 282 281 281 280 278 276 274 271 268 265 263 263 263 265 266 267 267 267 266 265 264 262 258 255 255 255 258 259 261 265 270 278 282 281 273 253 235 220
286 285 283 282 282 282 283 284 284 284 283 283 283 285 291 294 297 297 295 295 296 297 298 295 293 292 290 285 278 275 279 288 296 302 302 296 292 289 291 291 290 288 285 283 281 280 280 279 278 277 277 275 274 273 273 270 267 265 264 263 263 264 266 267 267 266 265 263 261 259 255 253 252 253 255 258 260 263 266 272 277 278 274 256 238 222
279 278 278 278 279 279 280 280 280 280 280 282 284 289 293 294 295 295 294 294 295 297 297 296 295 294 289 282 274 274 283 294 300 302 301 296 294 290 288 289 289 288 285 282 281 280 279 276 272 270 271 272 273 273 273 271 269 267 266 265 264 265 267 268 267 266 264 262 259 256 252 250 249 250 252 254 256 260 263 268 272 273 271 257 241 224
271 272 275 277 278 278 278 277 277 278 280 282 285 286 287 288 289 289 288 289 291 292 293 295 296 297 296 293 286 281 293 302 303 301 300 296 295 294 289 287 287 287 286 283 281 280 279 276 274 271 270 272 273 274 275 274 272 271 269 268 267 267 268 270 270 269 266 262 258 253 249 246 245 245 247 249 252 255 259 264 269 271 270 258 243 227
273 274 276 277 278 278 279 278 276 276 278 280 281 281 279 278 279 280 281 283 284 285 286 286 286 288 292 294 294 295 303 305 304 302 300 296 295 294 290 283 282 282 283 281 278 276 275 273 271 269 270 274 276 276 277 277 275 274 272 270 268 267 268 269 270 270 268 263 258 252 247 243 241 241 243 245 247 250 253 259 264 267 268 261 247 231
282 280 278 278 278 278 278 276 275 275 276 276 276 277 275 273 273 274 276 276 276 276 277 278 277 277 280 283 288 294 302 303 303 301 300 296 295 294 292 284 281 280 280 279 278 276 272 268 267 269 274 278 280 280 280 279 277 275 272 270 268 267 266 268 269 270 269 265 259 252 246 241 238 238 239 241 244 246 249 254 259 263 265 259 247 233
286 282 278 278 278 277 273 268 265 263 262 263 264 267 269 272 273 274 273 271 269 267 267 269 271 273 276 279 284 290 300 304 302 298 296 293 292 291 291 284 282 282 282 280 278 276 275 275 278 281 283 283 282 282 281 279 276 274 272 270 268 266 266 266 268 269 269 266 261 254 246 240 237 235 236 239 241 244 246 250 255 259 262 259 249 235
281 276 270 266 266 266 266 262 259 257 259 262 264 267 269 272 272 270 268 266 265 263 262 264 266 270 275 280 284 290 302 304 300 296 293 289 287 286 288 285 284 284 283 282 282 283 286 287 287 285 283 282 281 280 279 277 275 273 271 269 268 266 265 266 266 267 268 266 262 256 248 241 236 234 234 237 239 242 245 248 252 257 259 255 247 236
271 268 261 255 254 256 262 266 266 266 266 265 263 263 265 265 266 266 265 263 263 263 262 264 267 271 276 278 282 286 292 288 285 286 288 285 284 284 289 288 286 285 285 287 289 290 288 283 279 277 278 280 280 279 278 276 274 272 270 268 267 265 264 264 264 264 264 263 261 256 249 242 237 234 234 236 238 241 244 247 251 255 257 254 246 235
257 258 259 256 254 256 263 267 268 266 262 257 254 254 255 257 260 262 264 263 263 265 267 269 271 272 271 273 275 277 272 262 263 270 278 283 285 288 293 293 291 288 286 287 288 288 285 281 279 279 280 280 279 278 276 274 272 270 268 266 264 263 262 261 261 260 261 260 258 254 248 242 237 234 234 235 237 240 243 246 249 253 254 251 244 234
265 271 277 274 267 262 263 262 259 254 249 247 246 246 246 247 249 252 255 256 258 261 264 267 268 268 267 269 272 272 265 255 256 266 276 281 284 287 292 294 292 289 285 286 287 289 288 285 282 281 280 279 278 276 274 272 270 267 265 263 261 260 258 257 256 256 256 255 254 251 246 240 236 234 233 234 236 238 241 244 247 251 252 249 242 232
285 286 285 282 276 270 267 264 262 261 262 257 251 245 243 242 243 244 245 246 249 253 259 265 268 271 274 277 278 276 272 264 264 269 274 278 280 283 286 291 291 288 286 285 285 287 288 286 284 281 278 277 275 274 272 270 267 265 262 260 258 256 254 253 252 251 251 251 250 247 243 238 234 232 232 234 235 237 239 242 245 248 249 246 239 230
289 288 288 289 288 288 289 289 290 292 296 296 294 287 277 267 261 257 254 252 254 260 267 271 274 276 279 281 280 279 281 271 262 261 267 276 281 283 285 287 284 283 283 285 288 289 289 286 283 280 277 275 274 272 270 268 265 263 260 258 255 252 250 249 248 247 247 246 245 242 239 235 232 231 231 233 234 236 237 240 242 245 247 244 237 228
299 300 301 301 301 301 301 301 302 301 301 300 298 297 296 294 289 282 274 271 270 271 272 273 275 278 281 280 280 281 285 280 271 264 265 275 279 281 282 280 278 279 285 289 291 290 286 282 280 279 277 275 274 271 268 265 263 261 259 256 253 250 247 245 244 243 242 242 240 237 234 231 230 230 231 232 233 234 235 237 239 242 243 242 237 228
307 308 308 307 305 304 302 301 301 302 302 300 298 296 295 293 286 280 276 281 285 283 277 275 278 282 285 284 284 284 284 279 273 266 262 265 268 271 275 278 281 288 296 296 292 287 281 276 273 273 273 271 270 268 266 265 262 260 257 254 250 247 244 242 240 239 238 237 234 232 229 228 227 228 229 231 232 233 233 234 236 238 239 238 236 228
307 306 306 304 303 303 303 304 304 303 301 298 295 292 290 287 282 281 286 300 303 294 283 279 279 282 285 287 287 285 279 272 265 257 250 253 257 264 274 284 293 301 305 301 296 290 279 267 261 260 263 267 270 274 277 276 272 266 260 252 247 244 240 238 236 234 233 231 229 227 225 224 224 225 227 229 230 231 231 231 233 235 237 234 230 222
302 301 300 300 300 300 301 299 297 295 293 292 291 291 290 289 288 291 298 301 293 283 277 276 275 277 280 285 286 283 275 267 258 250 244 254 262 271 287 295 299 302 306 305 303 300 291 273 255 248 261 282 293 300 303 302 299 291 278 257 246 239 235 232 230 229 227 225 223 222 220 220 221 223 225 228 229 230 229 228 228 229 233 229 222 214
298 297 295 294 293 293 291 287 284 284 285 288 289 290 290 286 282 277 277 273 269 267 268 269 269 270 272 277 279 277 274 268 267 273 303 283 282 286 296 295 293 291 292 297 302 305 304 296 281 267 287 302 302 300 298 298 298 297 292 275 255 238 228 225 223 222 221 220 218 217 217 217 219 221 224 226 228 228 228 225 223 222 226 222 215 207
298 297 295 292 289 286 284 282 279 278 277 279 279 278 275 271 267 261 257 253 253 254 258 261 263 264 263 262 264 266 269 272 280 291 305 291 284 283 285 284 283 281 277 270 274 284 295 297 298 300 302 299 296 292 288 288 289 289 288 282 270 248 225 219 216 216 215 215 215 214 215 215 217 219 223 225 227 227 226 222 219 217 219 215 208 200
301 300 296 293 290 286 282 280 276 273 270 268 264 262 262 261 259 256 251 246 244 245 249 254 258 259 259 258 259 261 265 267 272 276 278 276 276 276 276 275 275 276 274 263 256 257 266 280 291 299 300 296 292 289 288 286 284 282 282 279 274 260 232 215 209 208 208 209 210 211 213 215 217 220 223 226 227 226 224 219 215 213 213 211 203 193
302 300 297 295 292 288 284 280 275 272 268 265 262 260 257 255 255 254 252 248 244 242 244 248 252 255 257 258 260 261 263 263 264 264 263 261 264 269 272 270 270 271 273 267 259 256 259 269 281 291 296 295 291 286 283 282 281 279 276 275 272 265 241 213 203 201 201 201 204 206 210 214 218 221 225 226 226 224 221 215 210 207 207 206 199 188
302 301 300 299 296 294 291 287 283 279 275 272 269 266 264 260 256 254 252 250 247 244 242 244 246 249 252 256 260 262 264 263 263 261 258 254 257 265 269 266 265 266 269 269 267 266 268 272 277 283 291 295 294 289 283 280 279 277 274 271 268 262 242 215 202 197 194 195 200 205 210 215 219 223 226 225 223 220 215 210 206 204 203 202 196 187
304 304 304 304 303 302 300 298 296 292 289 283 278 274 270 266 261 256 253 251 249 248 246 244 244 244 245 250 255 260 264 266 264 261 257 254 255 260 265 264 263 263 266 268 268 269 273 277 278 280 283 288 292 294 294 292 288 284 278 273 267 257 240 222 208 197 188 193 200 207 213 218 222 225 226 219 216 212 208 204 201 200 201 198 193 187
306 306 307 308 308 307 306 305 303 300 297 292 287 281 277 272 267 262 258 253 251 251 251 250 248 246 245 246 249 254 260 263 262 258 254 252 252 254 259 262 261 260 259 263 266 269 273 278 280 281 279 277 282 290 299 305 303 296 288 284 275 259 238 224 211 198 188 194 201 207 211 216 220 223 223 215 209 205 202 199 197 197 197 195 190 183
309 309 310 312 312 312 310 308 305 303 300 297 294 289 284 278 272 267 264 258 254 251 251 251 251 251 249 250 251 252 255 257 256 254 250 248 246 248 253 258 258 255 251 254 258 263 267 273 278 280 279 274 273 276 286 296 299 298 297 297 288 269 240 221 206 195 191 196 201 205 209 213 216 217 216 208 202 198 197 195 195 194 194 191 185 178
312 312 314 316 316 315 312 308 305 303 300 297 293 290 286 281 276 271 266 262 258 254 251 250 251 251 250 251 252 253 254 254 253 251 248 244 242 242 246 251 253 252 248 247 247 250 254 259 265 270 276 278 278 277 278 281 286 293 302 302 291 273 242 218 203 194 191 194 198 202 206 209 211 211 208 199 193 190 188 187 188 190 190 188 182 175
313 314 315 317 317 315 311 306 303 301 298 294 293 291 290 287 283 278 272 268 264 260 255 252 251 251 250 250 251 252 252 252 252 250 247 241 238 236 238 243 248 250 247 243 240 239 241 248 254 259 262 269 274 278 280 276 276 284 298 298 291 274 245 219 203 194 190 192 197 201 205 206 206 205 201 193 189 186 182 180 182 184 185 182 177 171
316 316 316 316 315 313 309 305 302 299 296 295 295 295 293 291 290 287 283 277 273 268 264 259 257 255 253 251 250 250 250 252 252 250 248 243 239 236 235 237 241 244 245 242 239 236 234 240 246 251 254 259 265 270 272 270 269 270 275 276 281 282 275 241 213 195 187 191 196 201 206 205 204 201 197 190 186 183 176 174 177 181 184 182 177 170
316 316 315 314 313 312 309 306 303 301 299 298 297 295 294 294 294 293 293 290 286 281 277 273 269 267 266 262 258 253 250 251 250 249 248 245 241 237 234 234 235 238 240 241 241 238 235 236 240 244 247 251 258 264 268 268 265 260 253 260 273 281 282 259 228 199 187 189 195 202 210 207 202 197 192 187 183 178 173 174 176 178 181 181 177 172
316 314 312 311 310 309 308 307 307 307 306 304 301 298 296 296 297 296 295 294 292 291 289 285 282 279 278 276 272 265 257 252 248 247 246 244 241 238 235 233 233 234 236 240 242 242 239 236 236 239 241 244 249 256 264 267 267 261 252 250 259 266 266 247 219 198 189 189 195 204 213 209 201 193 187 183 180 177 176 176 178 179 179 177 174 170
313 312 310 311 311 312 313 314 313 312 310 307 305 303 302 302 301 300 297 295 294 294 294 291 287 282 278 277 276 274 270 261 251 246 244 244 242 239 238 236 235 234 233 236 240 243 244 240 238 237 236 238 242 248 255 260 261 260 254 247 246 249 253 248 219 196 189 188 195 206 218 208 197 188 184 182 180 179 178 177 177 178 177 173 167 163
313 313 314 316 317 319 320 318 316 314 312 310 308 307 307 307 306 304 300 297 297 297 296 293 289 284 278 277 278 279 279 275 265 254 248 247 247 247 245 242 240 238 235 236 237 240 244 246 245 243 237 235 237 242 247 252 256 257 256 249 247 248 253 257 234 203 190 188 194 204 215 203 190 182 181 182 183 183 180 173 171 171 172 169 163 156
319 318 319 320 321 321 321 320 317 315 313 311 311 311 311 311 308 305 302 300 299 298 295 291 287 283 281 282 284 286 287 287 284 279 271 260 253 250 247 247 245 244 241 240 239 239 241 245 248 249 246 242 240 241 241 244 248 252 254 249 247 246 247 244 230 208 192 189 193 201 208 197 187 181 181 181 182 182 180 172 169 168 166 164 159 154
324 323 322 322 322 322 321 321 319 317 315 314 314 315 315 314 310 307 305 304 302 298 296 292 287 283 282 285 288 292 296 299 300 299 296 287 275 264 256 252 249 247 245 243 240 239 239 240 240 241 241 243 245 246 244 240 240 242 245 245 243 240 234 225 215 202 190 188 192 199 202 193 186 181 178 178 178 179 179 174 169 165 164 161 157 153
326 324 323 323 323 322 323 322 321 319 317 316 316 316 318 317 316 315 311 310 306 303 301 300 296 292 289 290 293 297 301 302 302 302 299 296 290 282 273 266 259 253 247 244 241 239 236 235 233 231 231 235 242 247 248 243 238 236 236 237 237 234 226 215 203 191 183 190 199 204 201 192 183 176 170 170 173 175 175 174 169 163 160 159 156 154
326 325 324 323 324 323 324 324 323 321 319 319 319 319 319 318 319 319 316 313 310 308 307 306 304 302 300 300 300 301 302 300 298 297 296 296 297 296 294 290 283 272 259 247 240 236 233 231 227 225 224 227 235 244 250 246 240 233 229 228 227 224 216 204 190 180 179 196 210 213 206 193 179 168 162 165 168 170 168 166 163 159 156 155 154 154
327 326 325 325 325 324 324 323 323 321 320 320 321 321 320 320 320 319 316 315 314 313 311 310 309 308 307 307 306 306 305 302 299 297 297 300 304 307 308 307 302 295 283 262 243 232 228 228 225 223 222 224 230 240 249 245 237 225 215 213 211 206 197 185 179 179 180 196 213 217 204 187 173 164 163 164 165 165 163 159 157 155 152 150 149 150
329 328 328 327 326 326 325 324 323 322 321 322 322 322 321 321 320 320 320 320 320 318 315 314 312 311 311 311 310 309 308 305 304 303 303 305 309 312 312 311 308 305 303 300 289 270 248 244 237 229 225 227 233 241 249 242 229 213 202 199 194 187 179 174 174 175 176 195 213 215 199 179 170 167 167 164 161 160 162 159 156 154 152 149 148 147